TimeEST,TemperatureF,Dew PointF,Humidity,Sea Level PressureIn,VisibilityMPH,Wind Direction,Wind SpeedMPH,Gust SpeedMPH,PrecipitationIn,Events,Conditions,WindDirDegrees,DateUTC
1:53 AM,35.1,27.0,72,30.47,10.0,East,4.6,-,N/A,,Clear,100,2013-01-19 06:53:00
2:53 AM,37.0,25.0,62,30.45,10.0,ESE,4.6,-,N/A,,Clear,110,2013-01-19 07:53:00
3:53 AM,35.1,25.0,67,30.45,10.0,Calm,Calm,-,N/A,,Clear,0,2013-01-19 08:53:00
4:53 AM,30.9,26.1,82,30.44,10.0,Calm,Calm,-,N/A,,Clear,0,2013-01-19 09:53:00
5:53 AM,30.0,26.1,85,30.45,10.0,Calm,Calm,-,N/A,,Clear,0,2013-01-19 10:53:00
6:53 AM,30.9,25.0,79,30.44,10.0,NE,3.5,-,N/A,,Clear,40,2013-01-19 11:53:00
7:53 AM,30.9,24.1,76,30.45,10.0,NE,4.6,-,N/A,,Clear,50,2013-01-19 12:53:00
8:53 AM,35.1,27.0,72,30.46,10.0,NNW,3.5,-,N/A,,Clear,330,2013-01-19 13:53:00
9:53 AM,39.9,25.0,55,30.47,10.0,East,3.5,-,N/A,,Clear,90,2013-01-19 14:53:00
10:53 AM,43.0,24.1,47,30.46,10.0,Calm,Calm,-,N/A,,Clear,0,2013-01-19 15:53:00
11:53 AM,45.0,23.0,42,30.42,10.0,Variable,3.5,-,N/A,,Clear,0,2013-01-19 16:53:00
12:53 PM,48.0,21.0,34,30.37,10.0,SSW,4.6,-,N/A,,Clear,200,2013-01-19 17:53:00
1:53 PM,50.0,21.9,33,30.32,10.0,Variable,4.6,-,N/A,,Clear,0,2013-01-19 18:53:00
2:53 PM,51.1,21.9,32,30.30,10.0,Variable,5.8,-,N/A,,Clear,0,2013-01-19 19:53:00
3:53 PM,51.1,25.0,36,30.28,10.0,SW,3.5,-,N/A,,Clear,230,2013-01-19 20:53:00
4:53 PM,50.0,23.0,35,30.27,10.0,WSW,5.8,-,N/A,,Clear,250,2013-01-19 21:53:00
5:53 PM,46.9,24.1,41,30.27,10.0,Calm,Calm,-,N/A,,Clear,0,2013-01-19 22:53:00
6:53 PM,45.0,24.1,44,30.28,10.0,Calm,Calm,-,N/A,,Clear,0,2013-01-19 23:53:00
7:53 PM,45.0,24.1,44,30.29,10.0,Calm,Calm,-,N/A,,Clear,0,2013-01-20 00:53:00
8:53 PM,43.0,26.1,51,30.27,10.0,Calm,Calm,-,N/A,,Clear,0,2013-01-20 01:53:00
9:53 PM,43.0,24.1,47,30.26,10.0,WSW,3.5,-,N/A,,Clear,240,2013-01-20 02:53:00
10:53 PM,37.0,28.9,73,30.25,10.0,Calm,Calm,-,N/A,,Clear,0,2013-01-20 03:53:00
11:53 PM,37.9,30.9,76,30.23,10.0,WNW,3.5,-,N/A,,Clear,300,2013-01-20 04:53:00